QPF
0.00 0.00 0.00 0.00 0.03 0.03 0.00 0.00 0.00 0.00 0.00 0.00 0.00 0.00 0.00 0.00 0.00 0.00 0.00 0.00 0.00 0.00 0.00 0.03 0.09 0.03 0.02 0.07 0.08 0.03 0.00 0.00 0.01 0.04 0.06 0.06 0.05 0.03 0.01 0.00 0.00 0.01 0.00 0.00 0.03 0.06 0.07 0.08 0.01
0.00 0.00 0.00 0.01 0.05 0.00 0.00 0.00 0.00 0.00 0.00 0.00 0.00 0.00 0.01 0.00 0.00 0.00 0.00 0.00 0.00 0.00 0.00 0.00 0.01 0.04 0.01 0.05 0.07 0.01 0.01 0.05 0.05 0.11 0.15 0.07 0.05 0.06 0.05 0.00 0.00 0.00 0.01 0.04 0.03 0.00 0.01 0.01 0.00
0.00 0.00 0.01 0.03 0.04 0.00 0.00 0.00 0.00 0.00 0.00 0.00 0.00 0.00 0.00 0.00 0.00 0.00 0.00 0.00 0.00 0.00 0.01 0.01 0.01 0.03 0.02 0.01 0.00 0.02 0.04 0.04 0.04 0.07 0.04 0.03 0.01 0.02 0.00 0.00 0.00 0.00 0.01 0.06 0.04 0.00 0.00 0.00 0.00
0.01 0.01 0.02 0.08 0.00 0.00 0.00 0.00 0.00 0.00 0.00 0.00 0.00 0.00 0.00 0.00 0.00 0.00 0.00 0.00 0.00 0.01 0.01 0.01 0.01 0.01 0.02 0.01 0.04 0.03 0.04 0.02 0.02 0.03 0.02 0.02 0.02 0.02 0.00 0.01 0.00 0.00 0.01 0.03 0.01 0.00 0.01 0.06 0.05
0.00 0.01 0.13 0.04 0.00 0.00 0.00 0.00 0.00 0.00 0.00 0.00 0.00 0.00 0.00 0.00 0.00 0.00 0.00 0.00 0.00 0.00 0.01 0.01 0.03 0.01 0.00 0.02 0.02 0.02 0.03 0.02 0.03 0.03 0.03 0.03 0.01 0.01 0.03 0.03 0.05 0.01 0.00 0.00 0.00 0.00 0.02 0.02 0.00
0.00 0.03 0.10 0.02 0.00 0.00 0.00 0.00 0.00 0.00 0.00 0.00 0.00 0.00 0.00 0.00 0.00 0.00 0.00 0.00 0.00 0.00 0.00 0.01 0.01 0.01 0.01 0.00 0.01 0.03 0.01 0.01 0.02 0.03 0.02 0.04 0.06 0.02 0.02 0.00 0.00 0.00 0.00 0.00 0.00 0.00 0.02 0.00 0.00
0.01 0.05 0.09 0.02 0.00 0.03 0.00 0.00 0.00 0.00 0.00 0.00 0.00 0.00 0.00 0.00 0.00 0.00 0.00 0.00 0.00 0.00 0.00 0.01 0.00 0.01 0.00 0.00 0.00 0.00 0.04 0.06 0.03 0.01 0.00 0.00 0.00 0.00 0.00 0.00 0.00 0.00 0.00 0.00 0.00 0.00 0.00 0.00 0.00
0.00 0.02 0.03 0.00 0.02 0.07 0.00 0.00 0.00 0.00 0.00 0.00 0.00 0.00 0.00 0.00 0.00 0.00 0.00 0.00 0.00 0.00 0.00 0.00 0.00 0.00 0.00 0.00 0.00 0.00 0.02 0.01 0.00 0.00 0.00 0.00 0.00 0.00 0.00 0.00 0.00 0.00 0.00 0.00 0.00 0.00 0.00 0.00 0.00
0.00 0.01 0.05 0.07 0.05 0.04 0.00 0.00 0.00 0.00 0.00 0.00 0.00 0.00 0.00 0.00 0.00 0.00 0.00 0.00 0.00 0.00 0.00 0.00 0.00 0.00 0.00 0.00 0.00 0.00 0.00 0.02 0.01 0.00 0.01 0.01 0.02 0.00 0.00 0.00 0.00 0.00 0.00 0.00 0.00 0.00 0.00 0.00 0.00
0.00 0.00 0.01 0.00 0.00 0.00 0.00 0.00 0.00 0.00 0.00 0.00 0.00 0.00 0.00 0.00 0.00 0.00 0.00 0.00 0.00 0.00 0.00 0.00 0.00 0.00 0.00 0.00 0.00 0.04 0.07 0.08 0.05 0.01 0.03 0.03 0.01 0.01 0.00 0.00 0.00 0.00 0.00 0.00 0.00 0.00 0.00 0.00 0.00
0.00 0.00 0.00 0.00 0.00 0.00 0.00 0.00 0.00 0.00 0.00 0.00 0.00 0.00 0.00 0.00 0.00 0.00 0.00 0.00 0.00 0.00 0.00 0.00 0.00 0.00 0.00 0.00 0.00 0.00 0.01 0.01 0.01 0.03 0.08 0.07 0.03 0.02 0.00 0.00 0.00 0.00 0.00 0.00 0.00 0.00 0.00 0.00 0.00
0.00 0.00 0.00 0.00 0.00 0.00 0.00 0.00 0.00 0.00 0.00 0.00 0.00 0.00 0.00 0.00 0.00 0.00 0.00 0.00 0.00 0.00 0.00 0.00 0.00 0.00 0.00 0.00 0.00 0.00 0.01 0.00 0.00 0.00 0.03 0.03 0.02 0.00 0.00 0.00 0.00 0.00 0.00 0.00 0.00 0.00 0.00 0.00 0.00
0.00 0.00 0.00 0.00 0.00 0.00 0.00 0.00 0.00 0.00 0.00 0.00 0.00 0.00 0.00 0.00 0.00 0.00 0.00 0.00 0.00 0.00 0.00 0.00 0.00 0.00 0.00 0.00 0.00 0.01 0.00 0.00 0.00 0.00 0.00 0.00 0.00 0.00 0.00 0.00 0.00 0.00 0.00 0.00 0.00 0.00 0.00 0.00 0.00
0.00 0.00 0.00 0.00 0.00 0.00 0.00 0.00 0.02 0.01 0.00 0.00 0.00 0.00 0.00 0.00 0.00 0.00 0.00 0.00 0.00 0.00 0.00 0.00 0.00 0.00 0.00 0.00 0.00 0.00 0.00 0.00 0.00 0.00 0.00 0.00 0.00 0.00 0.00 0.00 0.00 0.00 0.00 0.00 0.00 0.00 0.00 0.00 0.00
0.00 0.00 0.00 0.00 0.00 0.00 0.00 0.00 0.00 0.00 0.00 0.00 0.00 0.00 0.00 0.00 0.00 0.00 0.00 0.00 0.00 0.00 0.00 0.00 0.00 0.00 0.00 0.00 0.00 0.00 0.00 0.00 0.00 0.00 0.00 0.00 0.00 0.00 0.00 0.00 0.00 0.00 0.00 0.00 0.00 0.00 0.00 0.00 0.00
0.00 0.00 0.00 0.00 0.00 0.00 0.00 0.00 0.00 0.00 0.00 0.00 0.00 0.00 0.00 0.00 0.00 0.00 0.00 0.00 0.00 0.00 0.00 0.00 0.00 0.00 0.00 0.00 0.00 0.00 0.00 0.00 0.00 0.00 0.00 0.00 0.00 0.00 0.00 0.00 0.00 0.00 0.00 0.00 0.00 0.00 0.00 0.00 0.00
0.00 0.00 0.00 0.00 0.00 0.00 0.00 0.00 0.00 0.00 0.00 0.00 0.00 0.00 0.00 0.00 0.00 0.00 0.00 0.00 0.00 0.00 0.00 0.00 0.00 0.00 0.00 0.00 0.00 0.00 0.00 0.00 0.00 0.00 0.00 0.00 0.00 0.00 0.00 0.00 0.00 0.00 0.00 0.00 0.00 0.00 0.00 0.00 0.00
0.00 0.00 0.00 0.00 0.00 0.00 0.00 0.00 0.00 0.00 0.00 0.00 0.00 0.00 0.00 0.00 0.00 0.00 0.00 0.00 0.00 0.00 0.00 0.00 0.00 0.00 0.00 0.00 0.00 0.00 0.00 0.00 0.00 0.00 0.00 0.00 0.00 0.00 0.00 0.00 0.00 0.00 0.00 0.00 0.00 0.00 0.00 0.00 0.00
0.00 0.00 0.00 0.00 0.00 0.00 0.00 0.00 0.00 0.00 0.00 0.00 0.00 0.00 0.00 0.00 0.00 0.00 0.00 0.00 0.00 0.00 0.00 0.00 0.00 0.00 0.00 0.00 0.03 0.02 0.00 0.00 0.00 0.00 0.00 0.00 0.00 0.00 0.00 0.00 0.00 0.00 0.00 0.00 0.00 0.00 0.00 0.00 0.00
0.00 0.00 0.00 0.00 0.00 0.00 0.00 0.00 0.00 0.00 0.00 0.00 0.00 0.00 0.00 0.00 0.00 0.00 0.00 0.00 0.00 0.00 0.00 0.00 0.00 0.00 0.00 0.00 0.02 0.03 0.00 0.00 0.00 0.00 0.00 0.00 0.00 0.00 0.00 0.00 0.00 0.00 0.00 0.00 0.00 0.00 0.00 0.00 0.00
0.00 0.00 0.00 0.00 0.00 0.00 0.00 0.00 0.00 0.00 0.00 0.00 0.00 0.00 0.00 0.00 0.00 0.00 0.00 0.00 0.00 0.00 0.00 0.00 0.00 0.00 0.00 0.00 0.00 0.02 0.02 0.00 0.00 0.00 0.00 0.00 0.01 0.00 0.00 0.00 0.00 0.00 0.00 0.00 0.00 0.00 0.00 0.00 0.00
0.00 0.00 0.00 0.00 0.00 0.00 0.00 0.00 0.00 0.00 0.00 0.00 0.00 0.00 0.00 0.00 0.00 0.00 0.00 0.00 0.00 0.00 0.00 0.00 0.00 0.00 0.00 0.00 0.00 0.01 0.01 0.00 0.00 0.00 0.00 0.00 0.03 0.02 0.00 0.00 0.00 0.00 0.00 0.00 0.00 0.00 0.00 0.00 0.00
0.00 0.00 0.00 0.00 0.00 0.00 0.00 0.00 0.00 0.00 0.00 0.00 0.00 0.00 0.00 0.00 0.00 0.00 0.00 0.00 0.00 0.00 0.00 0.00 0.00 0.00 0.00 0.00 0.00 0.00 0.00 0.00 0.00 0.00 0.00 0.00 0.01 0.01 0.00 0.00 0.00 0.00 0.00 0.00 0.00 0.00 0.00 0.00 0.00
0.00 0.00 0.00 0.00 0.00 0.00 0.00 0.00 0.00 0.00 0.00 0.00 0.00 0.00 0.00 0.00 0.00 0.00 0.00 0.00 0.00 0.00 0.00 0.00 0.00 0.00 0.00 0.00 0.00 0.00 0.01 0.00 0.00 0.00 0.00 0.00 0.00 0.00 0.00 0.00 0.00 0.00 0.00 0.00 0.00 0.00 0.00 0.00 0.00
0.00 0.00 0.00 0.00 0.00 0.00 0.00 0.00 0.00 0.00 0.00 0.00 0.00 0.00 0.00 0.00 0.00 0.00 0.00 0.00 0.00 0.00 0.00 0.00 0.00 0.00 0.00 0.00 0.00 0.00 0.01 0.01 0.00 0.00 0.00 0.00 0.00 0.00 0.01 0.02 0.01 0.00 0.00 0.00 0.00 0.00 0.00 0.00 0.00
0.00 0.00 0.00 0.00 0.00 0.00 0.00 0.00 0.00 0.00 0.00 0.00 0.00 0.00 0.00 0.00 0.00 0.00 0.00 0.00 0.00 0.00 0.00 0.00 0.00 0.00 0.00 0.00 0.00 0.00 0.00 0.01 0.00 0.00 0.00 0.00 0.00 0.00 0.01 0.01 0.01 0.00 0.00 0.00 0.00 0.00 0.00 0.00 0.00
0.00 0.00 0.00 0.00 0.00 0.00 0.00 0.00 0.00 0.00 0.00 0.00 0.00 0.00 0.00 0.00 0.00 0.00 0.00 0.00 0.00 0.00 0.00 0.00 0.00 0.00 0.00 0.00 0.00 0.00 0.00 0.00 0.00 0.00 0.00 0.00 0.00 0.00 0.01 0.00 0.01 0.01 0.00 0.00 0.00 0.00 0.00 0.00 0.00
0.00 0.00 0.00 0.00 0.00 0.00 0.00 0.00 0.00 0.00 0.00 0.00 0.00 0.00 0.00 0.00 0.00 0.00 0.00 0.00 0.00 0.00 0.00 0.00 0.00 0.00 0.00 0.00 0.00 0.00 0.00 0.00 0.00 0.01 0.02 0.00 0.00 0.00 0.00 0.00 0.01 0.02 0.01 0.00 0.00 0.00 0.00 0.00 0.00
0.00 0.00 0.00 0.00 0.00 0.00 0.00 0.00 0.00 0.00 0.00 0.00 0.00 0.00 0.00 0.00 0.00 0.00 0.00 0.00 0.00 0.00 0.00 0.00 0.00 0.00 0.00 0.00 0.00 0.00 0.00 0.00 0.00 0.00 0.00 0.00 0.00 0.00 0.00 0.00 0.00 0.00 0.01 0.00 0.00 0.00 0.00 0.00 0.00
0.00 0.00 0.00 0.00 0.00 0.00 0.00 0.00 0.00 0.00 0.00 0.00 0.00 0.00 0.00 0.00 0.00 0.00 0.00 0.00 0.00 0.00 0.00 0.00 0.00 0.00 0.00 0.00 0.00 0.00 0.00 0.00 0.00 0.00 0.00 0.00 0.01 0.00 0.00 0.00 0.00 0.00 0.00 0.00 0.00 0.00 0.00 0.00 0.00
MSLP
1010.64 1010.15 1009.91 1009.37 1008.45 1006.09 1004.75 1005.29 1005.31 1005.69 1006.17 1006.53 1007.37 1007.65 1008.54 1009.42 1009.52 1010.99 1013.11 1013.66 1013.87 1014.22 1015.13 1015.84 1016.29 1016.34 1016.57 1016.71 1016.81 1016.90 1017.10 1017.25 1017.39 1017.45 1017.65 1017.66 1017.44 1017.62 1017.71 1017.85 1017.92 1018.04 1018.11 1018.31 1018.43 1018.49 1018.57 1018.60 1018.63
1010.09 1010.37 1009.90 1008.29 1006.26 1004.21 1004.71 1004.91 1005.22 1005.70 1006.31 1007.15 1007.86 1008.39 1008.93 1010.27 1011.35 1012.13 1013.15 1013.93 1014.03 1014.43 1014.85 1015.48 1016.43 1016.53 1016.70 1016.92 1017.10 1017.21 1017.31 1017.47 1017.72 1017.71 1017.79 1017.83 1018.05 1017.97 1017.96 1018.06 1018.18 1018.33 1018.45 1018.65 1018.74 1018.79 1018.88 1018.99 1019.06
1010.03 1010.11 1009.09 1007.21 1004.92 1003.74 1004.33 1005.01 1005.77 1006.42 1007.02 1007.34 1008.11 1008.69 1009.65 1011.39 1011.99 1012.34 1013.41 1014.08 1014.23 1014.60 1014.92 1016.01 1016.63 1016.72 1016.82 1016.95 1017.21 1017.42 1017.53 1017.69 1018.03 1017.99 1018.19 1018.14 1018.18 1018.17 1018.26 1018.36 1018.50 1018.66 1018.79 1018.95 1018.96 1019.15 1019.23 1019.37 1019.42
1009.64 1009.42 1008.27 1006.57 1004.63 1004.77 1004.76 1006.03 1006.58 1007.09 1007.31 1007.89 1008.41 1009.59 1011.27 1011.77 1012.31 1012.84 1013.75 1014.01 1014.34 1014.66 1015.15 1016.46 1016.64 1016.90 1017.09 1017.33 1017.58 1017.67 1017.74 1017.88 1018.15 1018.29 1018.33 1018.33 1018.43 1018.46 1018.60 1018.73 1018.77 1018.95 1019.05 1019.19 1019.27 1019.46 1019.59 1019.77 1019.70
1009.37 1008.01 1006.91 1005.34 1005.06 1005.55 1006.31 1006.48 1006.90 1007.19 1007.40 1008.26 1008.65 1009.97 1011.45 1012.56 1012.89 1013.62 1013.91 1014.16 1014.38 1014.81 1015.36 1016.30 1016.93 1017.07 1017.41 1017.60 1017.75 1017.85 1018.02 1018.23 1018.35 1018.42 1018.55 1018.66 1018.78 1018.87 1018.95 1019.03 1019.07 1019.15 1019.31 1019.43 1019.57 1019.66 1019.76 1019.83 1020.03
1008.38 1007.67 1006.45 1005.39 1006.16 1006.49 1006.49 1006.75 1007.05 1007.39 1008.04 1008.77 1009.23 1010.45 1012.18 1013.01 1013.25 1013.71 1014.05 1014.01 1014.09 1014.74 1015.30 1016.28 1017.23 1017.43 1017.68 1017.80 1017.98 1018.10 1018.25 1018.44 1018.60 1018.68 1018.77 1018.91 1018.99 1019.09 1019.13 1019.16 1019.26 1019.40 1019.56 1019.64 1019.71 1019.85 1019.94 1020.05 1020.15
1007.96 1007.69 1006.47 1005.68 1006.67 1006.71 1007.05 1007.26 1006.99 1007.62 1008.15 1008.65 1009.31 1010.14 1012.51 1012.86 1013.49 1013.79 1014.30 1014.21 1014.53 1014.84 1015.33 1016.09 1016.72 1017.45 1017.79 1017.97 1018.19 1018.35 1018.46 1018.73 1018.79 1018.85 1018.89 1019.02 1019.10 1019.23 1019.35 1019.46 1019.58 1019.69 1019.83 1019.87 1020.00 1020.10 1020.17 1020.25 1020.30
1008.64 1007.88 1006.39 1005.88 1006.07 1006.95 1007.85 1007.34 1007.66 1007.75 1008.57 1009.34 1009.49 1010.25 1011.81 1012.60 1013.52 1014.07 1014.45 1014.65 1014.99 1015.09 1015.39 1015.85 1016.46 1016.81 1017.20 1017.73 1018.40 1018.59 1018.74 1018.81 1018.92 1018.97 1019.07 1019.12 1019.24 1019.31 1019.51 1019.75 1019.85 1019.95 1020.03 1020.21 1020.31 1020.39 1020.48 1020.50 1020.48
1009.12 1007.69 1006.69 1006.72 1006.02 1006.76 1007.26 1007.21 1007.93 1008.41 1008.91 1009.21 1009.70 1009.90 1011.39 1012.81 1013.38 1013.84 1014.47 1014.91 1015.43 1015.46 1015.65 1015.98 1016.31 1017.09 1017.19 1017.36 1018.29 1018.67 1018.85 1018.93 1018.97 1018.97 1019.09 1019.15 1018.55 1018.72 1019.18 1019.57 1020.00 1020.28 1020.41 1020.53 1020.69 1020.71 1020.66 1020.53 1020.63
1008.77 1007.34 1006.93 1007.05 1006.64 1006.71 1007.22 1007.19 1007.85 1008.34 1008.96 1009.63 1009.93 1010.83 1012.00 1012.89 1013.27 1013.63 1014.10 1014.51 1015.05 1015.43 1015.78 1015.88 1016.13 1016.83 1017.18 1017.01 1017.89 1018.11 1018.45 1018.57 1018.84 1018.53 1018.61 1018.37 1018.59 1018.75 1018.53 1019.55 1020.18 1020.39 1020.54 1020.72 1020.84 1020.76 1020.54 1020.15 1019.06
1007.88 1007.45 1007.29 1006.99 1007.10 1007.79 1007.64 1007.92 1007.89 1008.21 1008.82 1009.44 1010.07 1011.08 1012.11 1012.74 1013.13 1013.57 1013.85 1014.15 1014.66 1015.33 1015.81 1016.05 1016.30 1016.75 1016.58 1016.98 1017.33 1017.41 1017.74 1018.14 1018.62 1018.90 1018.95 1018.90 1018.91 1018.82 1018.69 1019.41 1019.70 1020.03 1020.49 1020.01 1020.24 1020.33 1019.32 1019.61 1019.14
1006.49 1007.30 1007.01 1007.27 1007.34 1007.77 1007.91 1008.97 1008.19 1008.58 1009.47 1009.68 1010.69 1011.29 1012.03 1012.53 1012.81 1013.31 1013.70 1014.35 1014.63 1015.22 1015.75 1016.15 1016.54 1017.10 1017.00 1017.31 1017.25 1017.41 1017.61 1017.87 1017.88 1018.23 1018.82 1019.05 1018.83 1018.91 1018.72 1019.11 1019.21 1019.61 1019.36 1019.83 1019.80 1019.68 1019.90 1019.82 1019.91
1005.57 1006.00 1006.54 1006.85 1007.59 1007.85 1008.58 1008.69 1008.98 1009.57 1009.96 1010.39 1011.01 1011.47 1011.81 1012.12 1012.75 1013.25 1013.81 1014.37 1014.64 1015.24 1015.76 1016.21 1016.85 1017.39 1017.53 1017.85 1017.56 1017.73 1017.56 1017.49 1017.96 1018.32 1018.87 1018.32 1018.63 1019.15 1018.95 1019.21 1019.15 1019.34 1019.70 1019.77 1019.87 1019.97 1019.88 1019.95 1019.58
1005.31 1005.75 1006.31 1006.79 1007.65 1008.11 1008.32 1009.07 1009.27 1010.06 1010.34 1010.81 1011.32 1011.39 1011.61 1011.98 1012.57 1013.13 1013.68 1014.17 1014.69 1015.28 1015.81 1016.32 1016.97 1017.41 1017.61 1017.59 1017.94 1017.77 1017.67 1017.94 1017.94 1018.05 1018.57 1018.98 1018.79 1019.23 1019.37 1019.39 1019.31 1019.53 1019.58 1019.69 1019.80 1019.93 1019.83 1019.61 1019.33
1005.46 1005.60 1006.11 1006.67 1007.28 1007.69 1008.18 1008.80 1009.05 1010.05 1010.51 1011.11 1011.22 1011.27 1011.53 1011.99 1012.60 1013.15 1013.63 1014.05 1014.55 1015.13 1015.69 1016.33 1016.89 1017.15 1017.57 1017.73 1017.83 1017.63 1017.62 1017.49 1017.95 1018.19 1018.91 1019.15 1019.19 1019.46 1019.37 1019.16 1019.17 1019.43 1019.89 1020.05 1020.19 1020.19 1019.90 1019.51 1019.25
1004.70 1004.90 1004.74 1006.17 1006.93 1007.53 1007.97 1007.34 1008.98 1009.89 1010.11 1010.84 1010.67 1011.09 1011.50 1011.93 1012.46 1012.92 1013.52 1014.05 1014.53 1014.93 1015.67 1016.19 1016.42 1016.99 1017.32 1017.61 1017.75 1017.37 1017.53 1017.53 1017.83 1018.17 1018.65 1019.06 1019.30 1019.44 1019.35 1019.11 1019.13 1019.51 1019.65 1019.51 1019.47 1019.52 1019.57 1019.57 1019.49
1004.07 1002.94 1004.10 1005.47 1006.36 1006.96 1007.37 1006.85 1008.34 1009.28 1009.49 1009.82 1010.31 1010.75 1011.13 1011.63 1012.29 1012.84 1013.34 1013.84 1014.34 1014.91 1015.75 1016.15 1016.57 1016.89 1017.27 1017.56 1017.42 1017.55 1017.91 1017.54 1017.80 1018.01 1018.23 1019.00 1019.02 1019.30 1019.04 1018.87 1019.24 1019.86 1019.28 1019.27 1019.38 1019.62 1019.80 1019.67 1019.53
1002.43 1002.95 1003.74 1004.39 1005.55 1006.54 1006.61 1006.62 1007.56 1008.50 1008.69 1008.87 1009.62 1010.24 1010.65 1011.05 1011.77 1012.55 1013.07 1013.54 1014.18 1014.85 1015.59 1016.18 1016.56 1016.86 1017.37 1017.32 1017.59 1017.24 1017.40 1017.50 1017.70 1017.81 1017.80 1018.72 1018.79 1019.15 1019.17 1019.05 1019.47 1019.45 1019.11 1019.34 1019.53 1019.87 1019.85 1019.75 1019.55
1003.01 1002.83 1003.18 1004.33 1005.44 1005.69 1005.54 1005.75 1006.01 1007.49 1007.97 1008.23 1008.77 1009.53 1010.03 1010.48 1011.13 1011.99 1012.81 1013.37 1013.95 1014.65 1015.35 1015.92 1016.42 1016.95 1017.23 1017.35 1017.45 1017.13 1016.98 1017.28 1017.51 1017.58 1018.27 1018.65 1018.66 1018.99 1019.33 1018.97 1019.47 1019.44 1019.33 1019.45 1019.99 1020.03 1020.16 1019.61 1019.76
1003.18 1002.96 1002.98 1004.25 1004.98 1005.23 1004.72 1004.71 1005.01 1005.94 1006.97 1007.21 1007.74 1008.51 1009.20 1009.86 1010.45 1011.32 1012.22 1013.02 1013.57 1014.31 1015.10 1015.75 1016.21 1016.87 1017.01 1017.13 1017.21 1017.07 1016.77 1017.04 1017.09 1017.49 1018.13 1018.30 1018.60 1018.97 1019.10 1019.06 1019.21 1019.30 1019.29 1019.98 1020.16 1020.24 1019.67 1019.60 1019.91
1002.74 1002.64 1002.51 1003.32 1004.36 1004.53 1004.37 1003.39 1003.87 1004.91 1005.96 1006.85 1007.09 1007.65 1008.34 1008.96 1009.69 1010.75 1011.75 1012.49 1013.19 1013.73 1014.64 1015.43 1015.99 1016.51 1016.89 1016.85 1017.23 1017.51 1017.30 1017.23 1017.53 1017.77 1017.86 1018.26 1018.64 1018.89 1019.03 1019.25 1019.03 1019.48 1019.32 1019.39 1020.07 1020.19 1020.17 1019.35 1019.89
1002.11 1002.54 1002.97 1003.31 1003.57 1002.59 1003.71 1001.77 1002.56 1003.63 1004.78 1005.70 1006.32 1006.83 1007.33 1008.10 1009.09 1009.97 1011.07 1011.94 1012.58 1013.23 1014.01 1014.87 1015.77 1016.18 1016.71 1016.93 1016.87 1017.03 1016.95 1016.76 1016.91 1017.30 1017.56 1017.98 1018.45 1018.65 1018.89 1019.21 1019.44 1019.66 1019.23 1019.44 1019.85 1019.95 1020.35 1020.47 1019.55
1002.27 1002.02 1002.97 1003.02 1002.93 1002.62 1002.35 1002.30 1000.94 1002.39 1003.31 1004.05 1004.90 1005.56 1006.14 1006.96 1007.98 1008.95 1009.97 1011.04 1011.86 1012.63 1013.35 1014.20 1015.25 1015.89 1016.22 1016.71 1016.63 1017.07 1016.85 1016.70 1017.04 1017.15 1017.75 1018.03 1018.31 1018.62 1018.57 1018.98 1019.29 1019.48 1019.49 1019.82 1020.04 1020.31 1020.54 1020.26 1020.13
1002.84 1002.85 1003.22 1003.22 1002.68 1001.65 1001.37 1001.29 999.93 1000.25 1001.27 1002.34 1003.63 1004.56 1005.20 1005.87 1006.94 1007.94 1009.07 1010.15 1011.14 1012.01 1012.73 1013.51 1014.51 1015.43 1016.03 1016.51 1016.78 1016.82 1016.80 1016.65 1016.64 1017.10 1017.46 1017.55 1017.63 1017.95 1018.57 1018.79 1019.19 1019.38 1019.48 1019.92 1019.97 1020.19 1020.50 1020.61 1020.44
1002.66 1002.47 1002.21 1002.09 1001.38 1000.96 1000.69 1001.01 1000.12 1000.01 1000.57 1001.00 1001.80 1002.95 1004.09 1005.07 1005.94 1006.88 1007.97 1009.15 1010.18 1011.12 1011.98 1012.88 1013.88 1014.73 1015.51 1016.16 1016.44 1016.63 1016.69 1017.17 1017.21 1017.28 1017.18 1017.11 1017.25 1017.51 1018.17 1018.79 1019.13 1019.05 1019.50 1019.64 1019.81 1020.22 1020.27 1020.51 1020.35
1001.98 1001.73 1000.92 1000.60 1000.09 999.99 1000.16 1000.06 999.47 999.87 1000.02 1000.17 1000.78 1001.86 1003.08 1004.11 1004.87 1005.64 1006.69 1007.98 1009.15 1010.16 1011.27 1012.25 1013.17 1013.94 1014.69 1015.41 1015.95 1016.29 1016.49 1016.60 1016.89 1017.15 1016.63 1017.06 1017.10 1017.41 1017.71 1018.50 1018.68 1018.88 1019.14 1019.35 1019.71 1019.76 1019.86 1020.07 1020.31
1001.48 1001.12 1001.26 1000.62 1000.06 999.74 999.06 999.50 999.51 999.70 999.65 1000.01 1000.49 1001.02 1001.88 1002.85 1003.68 1004.59 1005.60 1006.74 1007.98 1009.17 1010.27 1011.34 1012.28 1013.15 1013.75 1014.61 1015.29 1015.87 1016.20 1016.29 1016.35 1016.64 1017.13 1016.99 1017.16 1017.01 1017.55 1018.02 1018.37 1018.53 1018.78 1019.01 1019.26 1019.25 1019.57 1019.74 1020.01
1000.88 1001.39 1001.10 1000.33 999.69 999.37 999.12 998.68 998.45 998.71 999.33 999.82 1000.11 1000.36 1000.98 1001.86 1002.86 1003.77 1004.73 1005.86 1006.88 1007.93 1009.19 1010.47 1011.41 1012.17 1012.80 1013.75 1014.53 1015.13 1015.69 1016.03 1016.25 1016.68 1017.09 1016.88 1017.04 1017.38 1017.45 1017.84 1017.98 1018.25 1018.46 1018.65 1018.98 1018.81 1019.14 1019.39 1019.31
1001.44 1001.13 1000.67 1000.47 1000.28 999.32 999.03 998.09 998.25 998.92 999.18 999.88 1000.04 999.95 1000.27 1001.09 1001.91 1002.88 1003.90 1005.12 1006.48 1007.43 1008.25 1009.50 1010.63 1011.50 1012.02 1012.97 1013.77 1014.35 1014.91 1015.51 1015.99 1016.12 1016.47 1016.85 1017.03 1017.28 1017.49 1017.73 1017.84 1017.97 1018.17 1018.31 1018.61 1018.67 1018.57 1018.90 1018.94
1000.85 1000.79 1000.49 999.88 999.75 999.69 998.89 998.13 998.03 999.28 1000.03 1000.30 1000.13 1000.69 1000.47 1000.71 1001.42 1002.34 1003.29 1004.59 1006.17 1006.93 1007.69 1008.82 1009.84 1010.75 1011.48 1012.17 1013.07 1013.84 1014.39 1014.85 1015.15 1015.53 1015.78 1016.24 1016.61 1016.90 1017.04 1017.34 1017.59 1017.72 1017.82 1017.88 1018.04 1018.13 1017.94 1018.23 1018.32
Thickness
5804 5808 5810 5805 5783 5799 5797 5792 5811 5797 5794 5809 5805 5794 5782 5778 5772 5752 5768 5766 5764 5762 5753 5747 5743 5743 5742 5742 5742 5743 5743 5743 5742 5743 5743 5743 5745 5745 5746 5745 5745 5746 5748 5748 5749 5750 5752 5753 5755
5809 5808 5806 5804 5796 5800 5793 5813 5799 5806 5810 5809 5802 5793 5783 5764 5773 5768 5763 5766 5764 5761 5757 5751 5745 5744 5742 5742 5742 5742 5742 5742 5741 5742 5742 5743 5743 5744 5746 5746 5746 5746 5747 5748 5749 5751 5752 5754 5755
5811 5811 5797 5799 5813 5803 5797 5812 5805 5807 5811 5806 5793 5800 5785 5762 5772 5772 5771 5767 5765 5762 5758 5749 5745 5744 5743 5743 5743 5741 5742 5741 5740 5741 5740 5742 5743 5745 5745 5746 5747 5747 5747 5748 5750 5750 5752 5754 5756
5808 5807 5811 5798 5808 5814 5814 5807 5807 5801 5809 5809 5802 5777 5779 5784 5775 5777 5773 5769 5767 5764 5759 5750 5748 5745 5743 5742 5741 5741 5741 5741 5740 5739 5740 5741 5743 5745 5746 5747 5748 5748 5749 5750 5750 5751 5752 5754 5756
5812 5813 5795 5810 5810 5813 5811 5816 5813 5802 5806 5801 5803 5777 5769 5777 5781 5776 5774 5772 5769 5766 5760 5752 5748 5746 5743 5740 5740 5740 5740 5740 5740 5741 5741 5742 5743 5744 5746 5748 5750 5751 5750 5751 5752 5754 5755 5757 5757
5802 5811 5794 5799 5797 5806 5816 5820 5815 5808 5806 5799 5794 5780 5767 5780 5778 5776 5776 5775 5774 5770 5764 5755 5747 5745 5744 5742 5741 5741 5741 5740 5740 5741 5742 5742 5743 5745 5747 5750 5752 5753 5753 5753 5754 5755 5758 5759 5760
5803 5796 5797 5810 5793 5799 5808 5821 5814 5807 5804 5799 5804 5782 5771 5777 5780 5780 5777 5777 5775 5773 5767 5759 5753 5747 5744 5744 5742 5741 5741 5741 5741 5743 5744 5745 5746 5748 5750 5751 5753 5754 5755 5755 5756 5758 5759 5761 5761
5807 5804 5807 5813 5802 5793 5802 5817 5819 5813 5801 5812 5811 5780 5769 5782 5784 5782 5779 5777 5775 5775 5771 5764 5758 5754 5751 5747 5742 5742 5741 5742 5742 5744 5745 5748 5749 5751 5753 5753 5753 5755 5756 5756 5757 5758 5760 5762 5764
5810 5802 5794 5793 5807 5803 5819 5813 5821 5821 5807 5809 5809 5805 5798 5790 5788 5783 5776 5774 5772 5775 5773 5768 5763 5756 5754 5753 5746 5744 5744 5744 5746 5748 5749 5751 5758 5759 5758 5757 5756 5756 5756 5758 5759 5762 5764 5767 5767
5795 5803 5801 5811 5818 5814 5817 5820 5816 5810 5804 5799 5804 5806 5799 5791 5788 5782 5778 5775 5775 5773 5775 5774 5771 5763 5759 5760 5752 5752 5750 5751 5751 5756 5757 5761 5762 5763 5767 5761 5758 5759 5760 5761 5764 5767 5770 5775 5783
5806 5795 5808 5815 5821 5815 5815 5813 5824 5812 5798 5804 5798 5798 5796 5792 5789 5787 5786 5786 5783 5780 5778 5778 5774 5770 5769 5765 5762 5762 5760 5758 5756 5756 5759 5761 5763 5766 5770 5767 5767 5766 5765 5771 5772 5773 5782 5781 5786
5808 5807 5816 5814 5822 5816 5811 5806 5814 5815 5805 5816 5806 5806 5800 5793 5792 5791 5790 5786 5787 5785 5782 5781 5777 5772 5772 5768 5769 5768 5768 5767 5768 5767 5765 5765 5769 5770 5775 5775 5776 5775 5778 5776 5778 5781 5781 5782 5782
5817 5820 5821 5823 5817 5818 5813 5806 5804 5802 5811 5813 5807 5805 5802 5800 5796 5795 5795 5793 5791 5787 5787 5785 5780 5774 5773 5770 5772 5772 5774 5776 5774 5772 5769 5776 5776 5775 5778 5778 5781 5781 5780 5781 5781 5782 5784 5784 5787
5825 5821 5818 5820 5812 5812 5806 5800 5804 5800 5809 5804 5800 5802 5805 5804 5800 5797 5795 5794 5791 5788 5788 5789 5784 5779 5777 5777 5774 5776 5777 5776 5778 5779 5775 5774 5779 5778 5779 5780 5783 5783 5784 5784 5784 5784 5785 5787 5790
5821 5807 5813 5813 5812 5808 5814 5792 5794 5801 5802 5793 5797 5803 5804 5804 5804 5797 5797 5797 5797 5793 5792 5789 5787 5784 5781 5780 5779 5781 5782 5785 5782 5781 5779 5778 5779 5779 5782 5785 5787 5787 5784 5784 5783 5784 5786 5789 5791
5812 5815 5800 5810 5811 5811 5807 5793 5797 5802 5800 5790 5801 5801 5801 5803 5803 5804 5802 5800 5800 5798 5792 5792 5793 5789 5786 5784 5784 5787 5787 5788 5787 5785 5784 5783 5782 5782 5784 5787 5789 5787 5787 5789 5790 5790 5790 5790 5791
5808 5807 5802 5798 5815 5807 5804 5799 5803 5807 5803 5799 5801 5800 5802 5802 5802 5804 5805 5804 5802 5800 5794 5792 5791 5791 5789 5787 5788 5789 5787 5791 5790 5790 5790 5787 5788 5787 5789 5792 5790 5787 5791 5791 5791 5790 5789 5789 5792
5800 5801 5804 5799 5808 5802 5799 5801 5806 5807 5807 5806 5803 5802 5802 5802 5802 5805 5805 5807 5805 5803 5799 5795 5793 5792 5790 5790 5789 5793 5793 5794 5794 5795 5796 5790 5792 5790 5790 5791 5789 5791 5794 5792 5791 5788 5791 5792 5794
5806 5806 5801 5804 5807 5802 5803 5804 5812 5807 5808 5806 5806 5804 5803 5803 5809 5810 5808 5807 5807 5804 5799 5797 5795 5792 5791 5791 5790 5793 5795 5797 5797 5797 5794 5792 5793 5791 5789 5792 5789 5791 5793 5793 5789 5789 5787 5793 5796
5799 5796 5799 5801 5806 5802 5807 5806 5817 5816 5809 5814 5812 5809 5806 5807 5809 5809 5809 5807 5807 5803 5800 5797 5797 5795 5794 5795 5796 5798 5801 5800 5800 5797 5794 5794 5793 5790 5790 5791 5791 5793 5794 5788 5788 5788 5792 5795 5796
5795 5794 5802 5796 5800 5808 5804 5808 5812 5818 5817 5815 5819 5819 5814 5812 5810 5807 5806 5806 5807 5807 5802 5798 5798 5797 5797 5798 5796 5795 5798 5798 5796 5795 5796 5792 5790 5790 5789 5790 5793 5791 5794 5793 5789 5790 5789 5794 5796
5783 5808 5800 5795 5791 5791 5807 5797 5811 5816 5810 5811 5814 5816 5818 5818 5816 5813 5808 5806 5808 5808 5807 5803 5799 5798 5797 5797 5796 5794 5796 5796 5801 5799 5798 5794 5791 5791 5790 5789 5790 5790 5794 5794 5793 5791 5789 5789 5794
5786 5816 5796 5796 5792 5796 5802 5790 5825 5822 5805 5811 5817 5820 5825 5826 5823 5818 5816 5812 5812 5812 5810 5807 5802 5799 5800 5797 5799 5794 5797 5802 5801 5802 5795 5794 5792 5792 5794 5791 5790 5791 5792 5791 5792 5791 5789 5794 5794
5798 5785 5784 5788 5790 5775 5801 5797 5817 5822 5821 5823 5824 5825 5827 5829 5827 5826 5822 5818 5813 5814 5812 5810 5804 5799 5798 5796 5795 5795 5795 5799 5800 5798 5796 5798 5800 5798 5794 5793 5792 5793 5794 5791 5792 5792 5791 5791 5793
5778 5771 5751 5749 5762 5764 5811 5790 5807 5832 5836 5837 5833 5832 5833 5833 5831 5827 5822 5818 5816 5814 5812 5811 5806 5800 5798 5796 5795 5795 5796 5793 5795 5796 5798 5800 5802 5802 5798 5794 5793 5795 5794 5795 5794 5792 5793 5792 5794
5765 5773 5764 5736 5762 5783 5809 5779 5810 5837 5845 5851 5849 5844 5839 5834 5836 5834 5830 5825 5820 5817 5813 5810 5806 5802 5802 5798 5795 5796 5796 5797 5798 5798 5803 5801 5803 5802 5801 5796 5797 5796 5796 5796 5795 5796 5797 5796 5795
5764 5756 5792 5778 5797 5783 5806 5811 5828 5837 5838 5841 5841 5844 5841 5842 5842 5839 5838 5833 5827 5821 5816 5812 5808 5806 5805 5802 5800 5797 5797 5797 5799 5800 5799 5802 5803 5804 5800 5798 5798 5798 5798 5798 5797 5800 5797 5797 5797
5770 5782 5753 5770 5745 5744 5781 5793 5803 5821 5826 5834 5836 5843 5846 5847 5845 5843 5840 5836 5833 5830 5825 5817 5813 5809 5809 5807 5805 5802 5799 5797 5797 5798 5795 5800 5801 5800 5801 5798 5798 5798 5798 5798 5797 5802 5801 5800 5802
5744 5745 5762 5775 5769 5757 5757 5786 5833 5824 5830 5827 5836 5849 5853 5851 5849 5847 5843 5840 5832 5830 5828 5822 5815 5810 5813 5811 5808 5806 5803 5801 5798 5799 5798 5797 5798 5798 5799 5798 5798 5798 5797 5798 5798 5799 5802 5800 5801
5758 5752 5764 5749 5748 5769 5781 5792 5839 5826 5826 5830 5837 5840 5852 5856 5855 5853 5848 5843 5831 5829 5828 5823 5820 5815 5814 5813 5809 5805 5804 5803 5801 5800 5801 5800 5797 5797 5798 5798 5798 5798 5799 5800 5799 5799 5802 5800 5799